THORAD DELTA 1 DEB, 8160

Orbit data source: Space-Track

THORAD DELTA 1 DEB, 8160 is space debris in SSO originally from a launch on Fri, 15 Nov 1974 UTC launched from the Air Force Western Test Range (AFWTR). Debris objects in space refer to the collection of defunct objects orbiting the Earth. Examples of debris include non-operational satellites, rocket bodies, and fragments generated from explosions, collisions, or faulty payload assembly.

Loading next visibility...
Identifier
8160, 1974-089AA
Orbit
SSO
Country
Flag of USUS
Related business
Manufacturer
Unknown
Mission
Spacecraft
Bus & Motor
Unknown
Mass
Unknown
Launch date (UTC)
1974-11-15 (51 years ago)
Launch vehicle
Unknown
Launch site
Air Force Western Test Range (AFWTR)
Object type
Payload
Rocket body
Debris
Shape & HBR
Unknown shape, 0.1 m
Radar Cross Section
Small (<0.1 m²)

Expand to show TLE details & history
Last TLE update: 11 hours ago

TLE from 11 hours ago
0 THORAD DELTA 1 DEB
1  8160U 74089AA  26036.29559542 -.00000033  00000-0  72666-4 0  9999
2  8160 101.8034 172.0759 0145727 341.9325  48.4455 12.63528696361208
Epoch: 2026-02-05T07:05Z
TLE epoch observation values (Epoch: 2026-02-05T07:05:39.444Z)
Latitude
30.953°
Longitude
-76.95202°
Altitude
1,337.716 km
Speed
7.226 km/s
True Right ascension
10h 59m 38s
True Declination
30° 48' 47"
Sunlit
Object was in full shadow at epoch
Visualization orbit readout
Latitude
Unknown
Longitude
Unknown
Altitude
Unknown
Speed
Unknown
Apparent Right ascension
Unknown
Apparent Declination
Unknown
Sunlit
N/A
Visualization observer readout
Local Sidereal Time
20:24:43
Azimuth
Unknown
Elevation
Unknown
Doppler factor
Unknown
Orbital elements
Apogee altitude
1,519.38 km
Perigee altitude
1,292.51 km
Semi-major axis
7,784.082 km
Eccentricity
0.01457
Inclination
101.8034°
RAAN
172.0759°
Arg. of periapsis
341.9325°
True anomaly
49.71031°
Mean anomaly
48.4455°
Eccentric anomaly
49.07638°
Mean motion
3.16033 °/min
Orbital period
113.91 mins
BSTAR
0.000072666
Loading maneuver chart data...
Computing Atmospheric mass density...

Documentation

Showing up to 5 results
|